7 * 24
多渠道服务支持
STARLINK-37033(NORAD编号68959)是美国SpaceX公司星链(Starlink)星座的一员,属于低轨卫星互联网通信卫星。作为星链大规模组网部署的卫星之一,它运行在近地轨道,为星座全球覆盖提供支撑,主要承担提供高速低延迟互联网接入服务的任务,重点覆盖地面基础设施难以抵达的偏远地区、海洋及空中区域。 该卫星延续星链设计,依托低轨布局降低通信延迟,和数千颗同系列卫星共同组网,持续推进星链星座建设,支撑全球卫星互联网服务能力扩展。
美国
(US)
| 数据来源 | 国际轨道数据 |
| 星历时间: | 2026-07-27T15:58:32+0800 16小时前 查看轨道信息 |
| 半长轴: | 6840.821km |
| 偏心率: | 0.0001269 |
| 轨道倾角: | 53.159° |
| 近地点辐角 | 90.861° |
| 升交点赤经 | 333.785° |
| 平近点角 | 269.253° |
| 近地点: | 461.815km |
| 远地点: | 463.553km |
| 周期: | 93.847分钟 |
| 每日圈数: | 15.344067 |